This page uses our WeatherBlox Daily Observations layout. Learn more.

39.04372, -77.48749

Hourly Observations for October 13, 2017

Temp ( °F °C ) Dew Point ( °F °C ) Humidity (%) Winds ( mph kmh ) Pressure ( in mb ) Visibility ( mi km ) Precip ( " mm )
12:15 am 00:15 Cloudy 59 15 57 14 94 NE 3 6 30.36 1028 10 16 0.00 0.00
12:35 am 00:35 Cloudy 59 15 57 14 94 NE 5 7 30.36 1028 10 16 0.00 0.00
12:55 am 00:55 Cloudy 59 15 57 14 94 NE 3 6 30.36 1028 10 16 0.00 0.00
1:15 am 01:15 Cloudy 59 15 57 14 94 NE 3 6 30.36 1028 10 16 0.00 0.00
1:35 am 01:35 Cloudy 59 15 57 14 94 NE 3 6 30.36 1028 10 16 0.00 0.00
1:55 am 01:55 Cloudy 59 15 55 13 88 NE 5 7 30.36 1028 10 16 0.00 0.00
2:15 am 02:15 Cloudy 59 15 55 13 88 NE 5 7 30.36 1028 10 16 0.00 0.00
2:35 am 02:35 Cloudy 59 15 55 13 88 NNE 5 7 30.36 1028 10 16 0.00 0.00
2:55 am 02:55 Cloudy 59 15 55 13 88 NE 5 7 30.36 1028 10 16 0.00 0.00
3:15 am 03:15 Cloudy 59 15 55 13 88 NE 6 9 30.36 1028 10 16 0.00 0.00
3:35 am 03:35 Cloudy 59 15 55 13 88 NE 5 7 30.36 1028 10 16 0.00 0.00
3:55 am 03:55 Cloudy 59 15 55 13 88 NNE 5 7 30.36 1028 10 16 0.00 0.00
4:15 am 04:15 Cloudy 59 15 55 13 88 NE 6 9 30.36 1028 10 16 0.00 0.00
4:35 am 04:35 Cloudy 59 15 55 13 88 NE 5 7 30.36 1028 10 16 0.00 0.00
4:55 am 04:55 Cloudy 59 15 55 13 88 NE 6 9 30.36 1028 10 16 0.00 0.00
5:15 am 05:15 Cloudy 59 15 55 13 88 NE 5 7 30.36 1028 10 16 0.00 0.00
5:35 am 05:35 Cloudy 59 15 55 13 88 NNE 3 6 30.36 1028 10 16 0.00 0.00
5:55 am 05:55 Cloudy 59 15 55 13 88 NE 5 7 30.36 1028 10 16 0.00 0.00
6:15 am 06:15 Cloudy 59 15 55 13 88 NE 5 7 30.36 1028 10 16 0.00 0.00
6:35 am 06:35 Cloudy 59 15 55 13 88 NE 5 7 30.36 1028 10 16 0.00 0.00
6:55 am 06:55 Cloudy 57 14 55 13 94 NE 5 7 30.36 1028 10 16 0.00 0.00
7:15 am 07:15 Cloudy 57 14 55 13 94 NE 5 7 30.39 1029 10 16 0.00 0.00
7:35 am 07:35 Cloudy 57 14 55 13 94 NE 5 7 30.39 1029 10 16 0.00 0.00
7:55 am 07:55 Cloudy 57 14 55 13 94 NE 5 7 30.39 1029 7 11 0.00 0.00
8:15 am 08:15 Cloudy 59 15 55 13 88 NE 3 6 30.39 1029 7 11 0.00 0.00
8:35 am 08:35 Cloudy 59 15 55 13 88 NE 6 9 30.39 1029 7 11 0.00 0.00
8:55 am 08:55 Cloudy 59 15 55 13 88 ENE 6 9 30.39 1029 7 11 0.00 0.00
9:15 am 09:15 Cloudy 59 15 55 13 88 NE 8 13 30.39 1029 7 11 0.00 0.00
9:35 am 09:35 Cloudy 59 15 55 13 88 ENE 7 11 30.39 1029 7 11 0.00 0.00
9:55 am 09:55 Cloudy 59 15 55 13 88 ENE 3 6 30.39 1029 7 11 0.00 0.00
10:15 am 10:15 Cloudy 59 15 55 13 88 NE 5 7 30.39 1029 7 11 0.00 0.00
10:35 am 10:35 Cloudy 61 16 57 14 88 E 5 7 30.39 1029 7 11 0.00 0.00
10:55 am 10:55 Cloudy with Mist and Fog 59 15 57 14 94 NE 5 7 30.39 1029 5 8 0.00 0.00
11:15 am 11:15 Cloudy with Mist and Fog 61 16 59 15 94 NE 3 6 30.39 1029 5 8 0.00 0.00
11:35 am 11:35 Cloudy 61 16 59 15 94 ENE 3 6 30.39 1029 7 11 0.00 0.00
11:55 am 11:55 Cloudy 61 16 59 15 94 NE 3 6 30.39 1029 7 11 0.00 0.00
12:15 pm 12:15 Cloudy 61 16 59 15 94 ENE 3 6 30.39 1029 7 11 0.00 0.00
12:35 pm 12:35 Cloudy 61 16 59 15 94 E 3 6 30.36 1028 7 11 0.00 0.00
12:55 pm 12:55 Cloudy 61 16 59 15 94 NE 3 6 30.36 1028 7 11 0.00 0.00
1:15 pm 13:15 Cloudy 61 16 59 15 94 ENE 6 9 30.36 1028 7 11 0.00 0.00
1:35 pm 13:35 Cloudy 63 17 59 15 88 NE 5 7 30.36 1028 7 11 0.00 0.00
1:55 pm 13:55 Cloudy 63 17 59 15 88 E 6 9 30.33 1027 10 16 0.00 0.00
2:15 pm 14:15 Cloudy 63 17 59 15 88 ENE 3 6 30.33 1027 7 11 0.00 0.00
2:35 pm 14:35 Cloudy 63 17 59 15 88 Calm 30.33 1027 10 16 0.00 0.00
2:55 pm 14:55 Cloudy 63 17 59 15 88 Calm 30.33 1027 10 16 0.00 0.00
3:15 pm 15:15 Cloudy 63 17 59 15 88 Calm 30.33 1027 10 16 0.00 0.00
3:35 pm 15:35 Cloudy 63 17 61 16 94 Calm 30.33 1027 10 16 0.00 0.00
3:55 pm 15:55 Cloudy 63 17 61 16 94 ENE 5 7 30.33 1027 10 16 0.00 0.00
4:15 pm 16:15 Cloudy 63 17 61 16 94 SE 6 9 30.33 1027 10 16 0.00 0.00
4:35 pm 16:35 Cloudy 63 17 61 16 94 SE 5 7 30.33 1027 10 16 0.00 0.00
4:55 pm 16:55 Cloudy 63 17 61 16 94 Calm 30.30 1026 10 16 0.00 0.00
5:15 pm 17:15 Cloudy 63 17 61 16 94 Calm 30.30 1026 10 16 0.00 0.00
5:35 pm 17:35 Cloudy 63 17 61 16 94 E 5 7 30.30 1026 10 16 0.00 0.00
5:55 pm 17:55 Cloudy 63 17 61 16 94 E 3 6 30.33 1027 10 16 0.00 0.00
6:15 pm 18:15 Cloudy 63 17 61 16 94 ENE 3 6 30.33 1027 10 16 0.00 0.00
6:35 pm 18:35 Cloudy 63 17 61 16 94 Calm 30.33 1027 10 16 0.00 0.00
6:55 pm 18:55 Cloudy 63 17 61 16 94 Calm 30.33 1027 10 16 0.00 0.00
7:15 pm 19:15 Cloudy 63 17 61 16 94 ENE 3 6 30.33 1027 10 16 0.00 0.00
7:35 pm 19:35 Cloudy 61 16 61 16 100 ENE 3 6 30.33 1027 7 11 0.00 0.00
7:55 pm 19:55 Cloudy 61 16 61 16 100 Calm 30.33 1027 7 11 0.00 0.00
8:15 pm 20:15 Cloudy with Mist and Fog 61 16 61 16 100 Calm 30.33 1027 5 8 0.00 0.00
8:35 pm 20:35 Cloudy with Mist and Fog 61 16 61 16 100 Calm 30.30 1026 4 6 0.00 0.00
8:55 pm 20:55 Cloudy with Mist and Fog 61 16 61 16 100 Calm 30.33 1027 3 5 0.00 0.00
9:15 pm 21:15 Cloudy with Mist and Fog 61 16 61 16 100 NE 3 6 30.33 1027 5 8 0.00 0.00
9:35 pm 21:35 Cloudy with Mist and Fog 61 16 61 16 100 NE 3 6 30.33 1027 4 6 0.00 0.00
9:55 pm 21:55 Cloudy with Mist and Fog 61 16 61 16 100 Calm 30.33 1027 5 8 0.00 0.00
10:15 pm 22:15 Cloudy with Mist and Fog 61 16 61 16 100 NE 3 6 30.33 1027 5 8 0.00 0.00
10:35 pm 22:35 Cloudy with Mist and Fog 61 16 61 16 100 Calm 30.33 1027 5 8 0.00 0.00
10:55 pm 22:55 Cloudy 61 16 61 16 100 Calm 30.33 1027 7 11 0.00 0.00
11:15 pm 23:15 Cloudy with Mist and Fog 61 16 61 16 100 Calm 30.30 1026 4 6 0.00 0.00
11:35 pm 23:35 Cloudy with Mist and Fog 61 16 61 16 100 Calm 30.30 1026 3 4 0.00 0.00
11:55 pm 23:55 Cloudy with Mist and Fog 59 15 59 15 100 Calm 30.30 1026 5 8 0.00 0.00